Location: Eitze
(52.9840°N, 9.6894°E)
Time: 07:34:57
(UTC+00:00)

Okean O Rocket - Pass Details

Date: 19 May 2025
Orbit: 614 x 636 km, 98.0° (Epoch: 22 June)

Event Time Altitude Azimuth Distance (km) Brightness Sun altitude
Rises 19:57:58 0° 175° (S) 2,907 4.5 -5.3°
Reaches altitude 10° 20:00:11 10° 180° (S) 2,001 3.8 -5.5°
Maximum altitude 20:04:28 57° 259° (W) 743 2.2 -6.0°
Drops below altitude 10° 20:08:46 10° 338° (NNW) 2,003 5.5 -6.4°
Sets 20:11:00 0° 343° (NNW) 2,911 6.3 -6.6°
